contact:dominique.lefevre@mio.osupytheas.fr, maurice.libes@osupytheas.fr, didier.mallarino@osupytheas.fr
Project:EMSO http://www.emso-fr.org/EMSO-France
Depth: 2436.0 m
Title:EMSO Ligure Ouest : Data MII capteur AQUADOPP
Date,Latitude,Longitude,X_East,Y_North,Z_Up,Amplitude_X,Amplitude_Y,Amplitude_Z,Batterie,SoundSpeed,Heading,Pitch,Roll,Pressure,TIS,Speed,Direction
, degrees North, degrees East, m.s-1, m.s-1,m.s-1, 1, 1, 1, Volt, m.s-1, degree, degree, degree, dbar, degree_C, m.s-1, degree
2023-02-22T00:04:03,42.805,6.029,-0.011,-0.012,-0.045,108.0,107.0,104.0,13.4,1505.2,323.2,-0.8,1.9,2471.027,13.29,0.016,222.5
2023-02-22T00:07:03,42.805,6.029,-0.022,-0.014,-0.039,108.0,106.0,105.0,13.4,1505.2,337.4,-0.8,1.8,2471.039,13.29,0.026,237.5
2023-02-22T00:10:03,42.805,6.029,-0.004,-0.022,-0.03,108.0,106.0,105.0,13.4,1505.2,316.7,-0.8,1.9,2471.026,13.29,0.022,190.3
2023-02-22T00:13:03,42.805,6.029,-0.004,-0.016,-0.025,108.0,107.0,104.0,13.3,1505.2,331.1,-0.8,1.8,2471.053,13.29,0.016,194.0
2023-02-22T00:16:03,42.805,6.029,-0.025,-0.035,-0.024,107.0,107.0,105.0,13.4,1505.2,332.6,-0.8,1.8,2471.049,13.29,0.043,215.5
2023-02-22T00:19:03,42.805,6.029,-0.019,-0.013,-0.013,108.0,107.0,105.0,13.4,1505.2,338.2,-0.8,1.8,2471.016,13.29,0.023,235.6
2023-02-22T00:22:03,42.805,6.029,-0.026,-0.011,-0.018,107.0,107.0,105.0,13.4,1505.2,332.0,-0.7,1.8,2471.013,13.29,0.028,247.1
2023-02-22T00:25:03,42.805,6.029,-0.02,-0.022,-0.027,107.0,105.0,105.0,13.3,1505.2,333.0,-0.8,1.8,2471.04,13.29,0.029,222.3
2023-02-22T00:28:03,42.805,6.029,-0.036,-0.008,-0.026,106.0,106.0,105.0,13.4,1505.2,321.9,-0.7,1.8,2471.019,13.29,0.036,257.5
2023-02-22T00:31:03,42.805,6.029,-0.016,-0.012,-0.027,108.0,105.0,105.0,13.4,1505.2,338.3,-0.8,1.8,2470.98,13.29,0.02,233.1
2023-02-22T00:34:03,42.805,6.029,-0.031,-0.023,-0.028,107.0,107.0,105.0,13.4,1505.2,318.3,-0.8,1.8,2471.018,13.29,0.038,233.4
2023-02-22T00:37:03,42.805,6.029,0.0,-0.005,-0.028,106.0,107.0,104.0,13.4,1505.2,318.7,-0.7,1.8,2471.026,13.29,0.005,180.0
2023-02-22T00:40:03,42.805,6.029,-0.021,-0.008,-0.019,107.0,105.0,105.0,13.4,1505.2,330.8,-0.8,1.8,2471.002,13.29,0.022,249.1
2023-02-22T00:43:03,42.805,6.029,-0.04,-0.017,-0.036,108.0,106.0,105.0,13.4,1505.2,333.0,-0.7,1.8,2471.018,13.29,0.043,247.0
2023-02-22T00:46:03,42.805,6.029,-0.016,-0.003,-0.021,107.0,106.0,104.0,13.4,1505.2,322.6,-0.7,1.8,2470.972,13.29,0.016,259.4
2023-02-22T00:49:03,42.805,6.029,-0.04,-0.023,-0.037,106.0,107.0,104.0,13.4,1505.2,322.9,-0.8,1.8,2470.985,13.29,0.046,240.1
2023-02-22T00:52:03,42.805,6.029,0.002,-0.024,-0.021,106.0,107.0,104.0,13.4,1505.2,316.8,-0.8,1.8,2470.998,13.29,0.024,175.2
2023-02-22T00:55:03,42.805,6.029,-0.018,0.0,-0.011,107.0,106.0,105.0,13.4,1505.2,338.2,-0.8,1.8,2470.997,13.29,0.018,270.0
2023-02-22T00:58:03,42.805,6.029,-0.012,-0.017,-0.019,107.0,106.0,106.0,13.3,1505.2,326.7,-0.7,1.8,2470.962,13.29,0.02,215.2
2023-02-22T01:04:03,42.805,6.029,0.007,0.027,-0.016,108.0,109.0,106.0,13.3,1505.2,315.5,-0.7,1.8,2471.017,13.29,0.027,14.5
2023-02-22T01:07:03,42.805,6.029,-0.003,-0.016,-0.004,109.0,107.0,106.0,13.4,1505.2,315.5,-0.8,1.8,2470.999,13.29,0.016,190.6
2023-02-22T01:10:03,42.805,6.029,-0.001,-0.002,-0.064,107.0,106.0,105.0,13.4,1505.2,324.8,-0.8,1.8,2471.024,13.29,0.002,206.6
2023-02-22T01:13:03,42.805,6.029,-0.024,0.008,-0.03,106.0,106.0,104.0,13.3,1505.2,321.4,-0.7,1.8,2470.977,13.29,0.025,288.4
2023-02-22T01:16:03,42.805,6.029,-0.014,-0.024,-0.004,106.0,106.0,104.0,13.3,1505.2,317.4,-0.8,1.8,2471.009,13.29,0.027,210.3
2023-02-22T01:19:03,42.805,6.029,-0.014,0.007,-0.018,106.0,106.0,104.0,13.4,1505.2,324.4,-0.7,1.8,2470.979,13.29,0.015,296.6
2023-02-22T01:22:03,42.805,6.029,-0.016,-0.025,-0.069,106.0,106.0,104.0,13.3,1505.2,334.2,-0.8,1.8,2470.954,13.29,0.029,212.6
2023-02-22T01:25:03,42.805,6.029,-0.016,-0.02,-0.036,107.0,106.0,104.0,13.4,1505.2,327.7,-0.7,1.8,2470.963,13.29,0.025,218.7
2023-02-22T01:28:03,42.805,6.029,-0.013,-0.015,-0.044,106.0,107.0,104.0,13.4,1505.2,330.4,-0.7,1.8,2470.994,13.29,0.019,220.9
2023-02-22T01:31:03,42.805,6.029,-0.034,-0.014,-0.034,107.0,105.0,104.0,13.4,1505.2,330.8,-0.8,1.8,2470.984,13.29,0.036,247.6
2023-02-22T01:34:03,42.805,6.029,-0.034,-0.003,0.005,108.0,105.0,106.0,13.4,1505.2,330.8,-0.8,1.8,2470.974,13.29,0.034,265.0
2023-02-22T01:37:03,42.805,6.029,-0.008,-0.014,-0.019,108.0,104.0,104.0,13.3,1505.2,336.3,-0.7,1.8,2470.962,13.29,0.016,209.7
2023-02-22T01:40:03,42.805,6.029,-0.032,0.028,-0.008,107.0,105.0,105.0,13.3,1505.2,319.4,-0.7,1.8,2470.898,13.29,0.042,311.2
2023-02-22T01:43:03,42.805,6.029,-0.025,-0.021,-0.042,105.0,107.0,105.0,13.4,1505.2,315.0,-0.8,1.8,2470.974,13.29,0.032,230.0
2023-02-22T01:46:03,42.805,6.029,-0.031,-0.002,-0.019,107.0,106.0,104.0,13.3,1505.2,316.0,-0.7,1.8,2470.975,13.29,0.031,266.3
2023-02-22T01:49:03,42.805,6.029,-0.037,-0.016,-0.055,107.0,105.0,104.0,13.4,1505.2,317.3,-0.7,1.8,2470.942,13.29,0.04,246.6
2023-02-22T01:52:03,42.805,6.029,-0.016,-0.014,-0.022,106.0,105.0,105.0,13.4,1505.2,329.1,-0.8,1.8,2470.955,13.29,0.021,228.8
2023-02-22T01:55:03,42.805,6.029,-0.012,-0.01,-0.03,105.0,106.0,104.0,13.4,1505.2,333.8,-0.8,1.8,2470.913,13.29,0.015,230.2
2023-02-22T01:58:03,42.805,6.029,-0.025,-0.018,-0.022,106.0,106.0,105.0,13.4,1505.2,338.7,-0.8,1.8,2470.945,13.29,0.03,234.2
2023-02-22T02:04:03,42.805,6.029,-0.032,-0.01,-0.031,106.0,106.0,105.0,13.4,1505.2,332.1,-0.7,1.8,2470.954,13.29,0.033,252.6
2023-02-22T02:07:03,42.805,6.029,-0.013,-0.003,-0.006,107.0,106.0,104.0,13.4,1505.2,335.7,-0.7,1.8,2470.982,13.29,0.013,257.0
2023-02-22T02:10:03,42.805,6.029,-0.034,-0.019,-0.034,107.0,106.0,106.0,13.4,1505.2,322.1,-0.8,1.8,2470.968,13.29,0.038,240.8
2023-02-22T02:13:03,42.805,6.029,-0.041,-0.005,-0.03,108.0,105.0,105.0,13.4,1505.2,322.4,-0.8,1.8,2470.955,13.29,0.041,263.0
2023-02-22T02:16:03,42.805,6.029,-0.011,-0.018,-0.034,107.0,107.0,106.0,13.4,1505.2,324.8,-0.8,1.8,2470.984,13.29,0.021,211.4
2023-02-22T02:19:03,42.805,6.029,-0.013,-0.005,-0.003,108.0,107.0,104.0,13.4,1505.2,335.2,-0.7,1.8,2470.973,13.29,0.013,249.0
2023-02-22T02:22:03,42.805,6.029,-0.03,-0.008,-0.007,107.0,108.0,105.0,13.4,1505.2,324.8,-0.7,1.8,2470.989,13.29,0.031,255.1
2023-02-22T02:25:03,42.805,6.029,-0.033,0.019,-0.04,108.0,104.0,105.0,13.3,1505.2,327.3,-0.8,1.8,2470.882,13.29,0.038,299.9
2023-02-22T02:28:03,42.805,6.029,-0.013,-0.01,-0.024,108.0,106.0,104.0,13.4,1505.2,319.4,-0.8,1.8,2470.962,13.29,0.016,232.4
2023-02-22T02:31:03,42.805,6.029,-0.007,-0.011,-0.049,108.0,107.0,104.0,13.3,1505.2,318.9,-0.8,1.8,2470.928,13.29,0.013,212.5
2023-02-22T02:34:03,42.805,6.029,-0.023,-0.001,0.002,108.0,107.0,105.0,13.4,1505.2,324.2,-0.7,1.8,2470.919,13.29,0.023,267.5
2023-02-22T02:37:03,42.805,6.029,-0.022,-0.018,-0.015,108.0,108.0,104.0,13.4,1505.2,331.0,-0.8,1.8,2470.875,13.29,0.028,230.7
2023-02-22T02:40:03,42.805,6.029,-0.016,-0.01,-0.021,106.0,107.0,105.0,13.4,1505.2,323.2,-0.8,1.8,2470.936,13.29,0.018,238.0
2023-02-22T02:43:03,42.805,6.029,0.0,-0.008,-0.002,108.0,106.0,106.0,13.3,1505.2,323.1,-0.7,1.8,2470.937,13.29,0.008,180.0
2023-02-22T02:46:03,42.805,6.029,-0.023,-0.022,-0.041,108.0,106.0,105.0,13.3,1505.2,323.1,-0.7,1.9,2470.927,13.29,0.031,226.3
2023-02-22T02:49:03,42.805,6.029,-0.036,-0.024,-0.022,107.0,107.0,105.0,13.4,1505.2,333.0,-0.8,1.8,2470.951,13.29,0.043,236.3
2023-02-22T02:52:03,42.805,6.029,-0.028,-0.012,0.009,107.0,105.0,106.0,13.3,1505.2,332.1,-0.7,1.8,2470.923,13.29,0.03,246.8
2023-02-22T02:55:03,42.805,6.029,-0.036,-0.016,-0.03,108.0,107.0,105.0,13.4,1505.2,320.4,-0.8,1.8,2470.942,13.29,0.039,246.0
2023-02-22T02:58:03,42.805,6.029,-0.02,-0.017,-0.017,109.0,107.0,107.0,13.4,1505.2,325.6,-0.7,1.8,2470.917,13.29,0.026,229.6
2023-02-22T03:04:03,42.805,6.029,-0.006,-0.021,-0.033,107.0,107.0,105.0,13.4,1505.2,321.4,-0.8,1.8,2470.942,13.29,0.021,195.9
2023-02-22T03:07:03,42.805,6.029,-0.01,-0.007,-0.028,107.0,107.0,105.0,13.3,1505.2,324.7,-0.7,1.8,2471.013,13.29,0.012,235.0
2023-02-22T03:10:03,42.805,6.029,-0.012,-0.021,-0.035,108.0,108.0,104.0,13.4,1505.2,335.2,-0.8,1.8,2470.956,13.29,0.024,209.7
2023-02-22T03:13:03,42.805,6.029,-0.017,-0.023,-0.03,108.0,106.0,104.0,13.4,1505.2,322.6,-0.8,1.8,2470.974,13.29,0.028,216.5
2023-02-22T03:16:03,42.805,6.029,-0.002,-0.008,-0.033,106.0,108.0,103.0,13.4,1505.2,331.7,-0.8,1.8,2470.978,13.29,0.008,194.0
2023-02-22T03:19:03,42.805,6.029,0.003,-0.022,-0.015,108.0,106.0,106.0,13.4,1505.2,328.2,-0.8,1.8,2470.955,13.29,0.022,172.2
2023-02-22T03:22:03,42.805,6.029,-0.017,-0.015,-0.029,109.0,107.0,104.0,13.4,1505.2,334.2,-0.8,1.8,2470.972,13.29,0.022,228.6
2023-02-22T03:25:03,42.805,6.029,-0.004,-0.006,0.005,107.0,105.0,105.0,13.4,1505.2,330.8,-0.8,1.8,2470.979,13.29,0.007,213.7
2023-02-22T03:28:03,42.805,6.029,-0.021,-0.026,-0.035,107.0,106.0,104.0,13.3,1505.2,329.5,-0.8,1.8,2470.947,13.29,0.033,218.9
2023-02-22T03:31:03,42.805,6.029,0.009,-0.008,-0.015,107.0,107.0,104.0,13.3,1505.2,330.0,-0.8,1.8,2470.955,13.29,0.012,131.6
2023-02-22T03:34:03,42.805,6.029,-0.007,0.0,-0.037,107.0,106.0,104.0,13.4,1505.2,336.1,-0.8,1.8,2470.94,13.29,0.007,270.0
2023-02-22T03:37:03,42.805,6.029,-0.007,-0.029,-0.036,107.0,107.0,104.0,13.4,1505.2,321.7,-0.7,1.8,2470.948,13.29,0.029,193.6
2023-02-22T03:40:03,42.805,6.029,-0.017,-0.012,-0.043,107.0,106.0,104.0,13.4,1505.2,328.4,-0.8,1.8,2470.95,13.29,0.02,234.8
2023-02-22T03:43:03,42.805,6.029,-0.011,0.002,0.017,108.0,107.0,104.0,13.4,1505.2,326.7,-0.8,1.8,2470.954,13.29,0.011,280.3
2023-02-22T03:46:03,42.805,6.029,-0.01,-0.007,0.016,107.0,107.0,105.0,13.4,1505.2,327.4,-0.8,1.8,2470.955,13.29,0.012,235.0
2023-02-22T03:49:03,42.805,6.029,-0.001,0.01,-0.032,107.0,106.0,105.0,13.4,1505.2,325.0,-0.8,1.8,2470.969,13.29,0.01,354.3
2023-02-22T03:52:03,42.805,6.029,0.011,-0.006,0.017,106.0,106.0,105.0,13.4,1505.2,322.7,-0.8,1.8,2470.926,13.29,0.012,118.6
2023-02-22T03:55:03,42.805,6.029,0.001,-0.014,0.001,108.0,106.0,106.0,13.4,1505.2,327.9,-0.8,1.8,2470.956,13.29,0.014,175.9
2023-02-22T03:58:03,42.805,6.029,-0.009,-0.012,-0.015,105.0,106.0,105.0,13.4,1505.2,321.6,-0.8,1.8,2470.952,13.29,0.015,216.9
2023-02-22T04:04:03,42.805,6.029,-0.007,-0.014,0.0,108.0,105.0,103.0,13.4,1505.2,332.2,-0.8,1.8,2470.999,13.29,0.015,206.6
2023-02-22T04:07:03,42.805,6.029,-0.015,-0.005,-0.033,106.0,106.0,105.0,13.4,1505.2,335.4,-0.8,1.9,2471.03,13.29,0.015,251.6
2023-02-22T04:10:03,42.805,6.029,-0.006,-0.004,-0.02,107.0,106.0,105.0,13.4,1505.2,331.4,-0.8,1.8,2471.018,13.29,0.007,236.3
2023-02-22T04:13:03,42.805,6.029,-0.026,-0.019,-0.021,107.0,105.0,104.0,13.4,1505.2,333.8,-0.8,1.8,2471.031,13.29,0.032,233.8
2023-02-22T04:16:03,42.805,6.029,-0.03,-0.009,-0.026,105.0,106.0,105.0,13.4,1505.2,323.4,-0.8,1.8,2471.014,13.29,0.031,253.3
2023-02-22T04:19:03,42.805,6.029,-0.01,0.002,-0.017,107.0,105.0,105.0,13.4,1505.2,321.8,-0.8,1.8,2470.993,13.29,0.01,281.3
2023-02-22T04:22:03,42.805,6.029,-0.02,-0.015,-0.025,106.0,106.0,105.0,13.4,1505.2,319.2,-0.8,1.8,2470.98,13.29,0.025,233.1
2023-02-22T04:25:03,42.805,6.029,-0.026,0.0,-0.045,106.0,107.0,104.0,13.4,1505.2,317.8,-0.8,1.8,2471.025,13.29,0.026,270.0
2023-02-22T04:28:03,42.805,6.029,-0.006,-0.013,-0.034,107.0,107.0,105.0,13.4,1505.2,320.9,-0.8,1.8,2470.974,13.29,0.014,204.8
2023-02-22T04:31:03,42.805,6.029,-0.01,0.005,-0.024,108.0,107.0,105.0,13.4,1505.2,320.0,-0.7,1.8,2471.008,13.29,0.011,296.6
2023-02-22T04:34:03,42.805,6.029,-0.016,-0.009,-0.024,107.0,106.0,106.0,13.4,1505.2,315.0,-0.8,1.8,2470.994,13.29,0.018,240.6
2023-02-22T04:37:03,42.805,6.029,0.007,-0.01,-0.06,109.0,107.0,105.0,13.4,1505.2,316.1,-0.7,1.8,2470.985,13.29,0.012,145.0
2023-02-22T04:40:03,42.805,6.029,-0.006,-0.022,-0.03,108.0,108.0,106.0,13.3,1505.2,319.2,-0.8,1.8,2470.981,13.29,0.022,195.3
2023-02-22T04:43:03,42.805,6.029,-0.019,-0.017,-0.036,108.0,107.0,105.0,13.4,1505.2,333.0,-0.8,1.8,2471.001,13.29,0.025,228.2
2023-02-22T04:46:03,42.805,6.029,0.003,-0.018,-0.009,108.0,108.0,106.0,13.3,1505.2,329.8,-0.8,1.8,2471.026,13.29,0.018,170.5
2023-02-22T04:49:03,42.805,6.029,-0.006,-0.007,-0.006,108.0,107.0,106.0,13.3,1505.2,332.2,-0.8,1.8,2471.019,13.29,0.009,220.6
2023-02-22T04:52:03,42.805,6.029,-0.003,0.005,-0.002,108.0,108.0,105.0,13.4,1505.2,323.1,-0.7,1.8,2471.03,13.29,0.005,329.0
2023-02-22T04:55:03,42.805,6.029,-0.016,-0.018,-0.019,108.0,108.0,106.0,13.4,1505.2,317.3,-0.8,1.8,2471.002,13.29,0.024,221.6
2023-02-22T04:58:03,42.805,6.029,-0.012,-0.012,-0.016,109.0,108.0,106.0,13.4,1505.2,328.7,-0.7,1.8,2471.023,13.29,0.016,225.0
2023-02-22T05:04:03,42.805,6.029,0.004,-0.019,-0.011,109.0,108.0,105.0,13.4,1505.2,329.0,-0.8,1.8,2471.08,13.29,0.019,168.1
2023-02-22T05:07:03,42.805,6.029,0.0,-0.036,-0.046,108.0,108.0,106.0,13.4,1505.2,321.0,-0.8,1.8,2471.079,13.29,0.036,180.0
2023-02-22T05:10:03,42.805,6.029,-0.032,-0.014,-0.019,107.0,108.0,106.0,13.3,1505.2,341.8,-0.8,1.8,2471.063,13.29,0.034,246.4
2023-02-22T05:13:03,42.805,6.029,-0.015,-0.011,-0.015,109.0,107.0,105.0,13.4,1505.2,320.9,-0.7,1.8,2471.076,13.29,0.018,233.7
2023-02-22T05:16:03,42.805,6.029,-0.011,-0.029,-0.046,109.0,108.0,106.0,13.3,1505.2,319.2,-0.8,1.8,2471.064,13.29,0.031,200.8
2023-02-22T05:19:03,42.805,6.029,-0.018,-0.013,-0.005,108.0,107.0,105.0,13.4,1505.2,328.0,-0.8,1.8,2471.065,13.29,0.022,234.2
2023-02-22T05:22:03,42.805,6.029,-0.026,-0.029,-0.014,109.0,107.0,106.0,13.4,1505.2,335.2,-0.8,1.8,2471.059,13.29,0.038,221.9
2023-02-22T05:25:03,42.805,6.029,-0.026,-0.018,-0.015,108.0,108.0,106.0,13.3,1505.2,335.2,-0.8,1.8,2471.067,13.29,0.031,235.3
2023-02-22T05:28:03,42.805,6.029,-0.025,-0.016,-0.039,108.0,107.0,105.0,13.3,1505.2,330.6,-0.8,1.8,2471.083,13.29,0.029,237.4
2023-02-22T05:31:03,42.805,6.029,-0.022,-0.021,-0.008,107.0,107.0,105.0,13.4,1505.2,328.7,-0.8,1.8,2471.046,13.29,0.03,226.3
2023-02-22T05:34:03,42.805,6.029,-0.002,-0.02,0.009,108.0,107.0,106.0,13.4,1505.2,316.1,-0.8,1.8,2471.046,13.29,0.02,185.7
2023-02-22T05:37:03,42.805,6.029,-0.021,-0.022,-0.026,108.0,107.0,105.0,13.4,1505.2,316.7,-0.7,1.8,2471.077,13.29,0.03,223.7
2023-02-22T05:40:03,42.805,6.029,-0.011,-0.013,-0.028,108.0,108.0,106.0,13.4,1505.2,324.4,-0.8,1.8,2471.083,13.29,0.017,220.2
2023-02-22T05:43:03,42.805,6.029,-0.008,-0.006,-0.025,108.0,107.0,106.0,13.4,1505.2,320.5,-0.7,1.8,2471.09,13.29,0.01,233.1
2023-02-22T05:46:03,42.805,6.029,-0.035,-0.035,-0.049,107.0,107.0,105.0,13.3,1505.2,319.0,-0.8,1.8,2471.028,13.29,0.049,225.0
2023-02-22T05:49:03,42.805,6.029,-0.019,-0.011,-0.026,107.0,106.0,104.0,13.4,1505.2,320.4,-0.8,1.8,2471.082,13.29,0.021,239.9
2023-02-22T05:52:03,42.805,6.029,-0.015,-0.013,-0.007,108.0,107.0,106.0,13.4,1505.2,318.1,-0.8,1.8,2471.121,13.29,0.019,229.1
2023-02-22T05:55:03,42.805,6.029,-0.013,-0.023,-0.031,108.0,107.0,105.0,13.4,1505.2,323.2,-0.8,1.8,2471.09,13.29,0.026,209.5
2023-02-22T05:58:03,42.805,6.029,-0.009,0.0,-0.013,108.0,108.0,106.0,13.3,1505.2,327.3,-0.8,1.8,2471.103,13.29,0.009,270.0
2023-02-22T06:04:03,42.805,6.029,-0.011,-0.03,-0.031,107.0,107.0,105.0,13.3,1505.2,326.5,-0.7,1.8,2471.176,13.29,0.031,200.1
2023-02-22T06:07:03,42.805,6.029,-0.022,-0.032,-0.023,107.0,107.0,105.0,13.3,1505.2,329.5,-0.8,1.8,2471.147,13.29,0.038,214.5
2023-02-22T06:10:03,42.805,6.029,-0.02,-0.015,-0.028,108.0,107.0,105.0,13.4,1505.2,330.6,-0.8,1.8,2471.163,13.29,0.025,233.1
2023-02-22T06:13:03,42.805,6.029,0.0,-0.008,-0.011,107.0,106.0,106.0,13.4,1505.2,329.6,-0.8,1.8,2471.164,13.29,0.008,180.0
2023-02-22T06:16:03,42.805,6.029,-0.015,-0.016,-0.029,108.0,106.0,106.0,13.3,1505.2,331.3,-0.7,1.8,2471.106,13.29,0.021,223.1
2023-02-22T06:19:03,42.805,6.029,-0.025,-0.023,-0.019,108.0,107.0,106.0,13.4,1505.2,333.0,-0.8,1.8,2471.181,13.29,0.033,227.4
2023-02-22T06:22:03,42.805,6.029,-0.008,-0.023,-0.006,109.0,109.0,105.0,13.4,1505.2,332.5,-0.8,1.8,2471.193,13.29,0.024,199.2
2023-02-22T06:25:03,42.805,6.029,-0.023,-0.018,-0.035,107.0,107.0,105.0,13.4,1505.2,335.7,-0.7,1.8,2471.177,13.29,0.029,232.0
2023-02-22T06:28:03,42.805,6.029,-0.01,-0.022,-0.022,107.0,106.0,105.0,13.4,1505.2,335.6,-0.8,1.8,2471.175,13.29,0.024,204.4
2023-02-22T06:31:03,42.805,6.029,-0.007,-0.007,0.002,107.0,107.0,105.0,13.4,1505.2,319.2,-0.8,1.8,2471.145,13.29,0.009,225.0
2023-02-22T06:34:03,42.805,6.029,-0.029,-0.011,-0.022,108.0,107.0,105.0,13.4,1505.2,338.7,-0.8,1.8,2471.175,13.29,0.031,249.2
2023-02-22T06:37:03,42.805,6.029,-0.023,-0.01,-0.029,107.0,108.0,105.0,13.4,1505.2,335.2,-0.7,1.9,2471.178,13.29,0.025,246.5
2023-02-22T06:40:03,42.805,6.029,-0.029,-0.018,-0.027,108.0,107.0,106.0,13.3,1505.2,319.2,-0.7,1.8,2471.162,13.29,0.034,238.2
2023-02-22T06:43:03,42.805,6.029,-0.006,-0.025,-0.033,107.0,106.0,106.0,13.3,1505.2,318.5,-0.7,1.8,2471.157,13.29,0.025,193.5
2023-02-22T06:46:03,42.805,6.029,-0.038,-0.019,-0.019,107.0,107.0,104.0,13.3,1505.2,324.1,-0.7,1.8,2471.183,13.29,0.042,243.4
2023-02-22T06:49:03,42.805,6.029,-0.031,-0.024,-0.032,108.0,107.0,106.0,13.3,1505.2,323.9,-0.8,1.8,2471.156,13.29,0.039,232.3
2023-02-22T06:52:03,42.805,6.029,-0.011,-0.013,-0.02,108.0,106.0,104.0,13.3,1505.2,317.4,-0.8,1.8,2471.164,13.29,0.017,220.2
2023-02-22T06:55:02,42.805,6.029,-0.022,-0.005,-0.022,109.0,106.0,104.0,13.3,1505.2,322.9,-0.7,1.8,2471.147,13.29,0.022,257.2
2023-02-22T06:58:02,42.805,6.029,-0.017,-0.023,-0.022,108.0,108.0,105.0,13.4,1505.2,319.9,-0.8,1.8,2471.179,13.29,0.028,216.5
2023-02-22T07:04:02,42.805,6.029,-0.018,-0.04,-0.005,108.0,107.0,106.0,13.4,1505.2,316.0,-0.8,1.8,2471.243,13.29,0.043,204.2
2023-02-22T07:07:02,42.805,6.029,-0.022,-0.023,-0.025,108.0,109.0,104.0,13.3,1505.2,338.0,-0.8,1.8,2471.222,13.29,0.031,223.7
2023-02-22T07:10:02,42.805,6.029,-0.014,-0.008,-0.023,108.0,108.0,105.0,13.4,1505.2,340.0,-0.7,1.8,2471.19,13.29,0.016,240.3
2023-02-22T07:13:02,42.805,6.029,-0.004,-0.021,-0.044,107.0,108.0,106.0,13.4,1505.2,322.5,-0.8,1.8,2471.219,13.29,0.021,190.8
2023-02-22T07:16:02,42.805,6.029,-0.026,-0.017,-0.017,108.0,108.0,106.0,13.4,1505.2,328.2,-0.8,1.8,2471.249,13.29,0.031,236.8
2023-02-22T07:19:03,42.805,6.029,-0.022,-0.049,-0.044,108.0,106.0,106.0,13.4,1505.2,317.3,-0.8,1.8,2471.237,13.29,0.053,204.2
2023-02-22T07:22:02,42.805,6.029,-0.025,-0.016,-0.024,108.0,106.0,105.0,13.4,1505.2,323.7,-0.7,1.8,2471.238,13.29,0.029,237.4
2023-02-22T07:25:03,42.805,6.029,0.0,-0.024,-0.031,108.0,107.0,105.0,13.3,1505.2,319.8,-0.8,1.8,2471.24,13.29,0.024,180.0
2023-02-22T07:28:03,42.805,6.029,-0.041,-0.032,-0.036,107.0,107.0,106.0,13.3,1505.2,318.7,-0.8,1.8,2471.196,13.29,0.052,232.0
2023-02-22T07:31:03,42.805,6.029,-0.019,-0.019,0.0,107.0,107.0,105.0,13.4,1505.2,319.0,-0.8,1.8,2471.234,13.29,0.026,225.0
2023-02-22T07:34:03,42.805,6.029,-0.008,-0.003,-0.011,108.0,106.0,105.0,13.4,1505.2,323.6,-0.8,1.8,2471.218,13.29,0.008,249.4
2023-02-22T07:37:02,42.805,6.029,-0.011,-0.002,-0.019,107.0,107.0,105.0,13.4,1505.2,322.4,-0.7,1.8,2471.246,13.29,0.011,259.7
2023-02-22T07:40:03,42.805,6.029,-0.027,-0.001,-0.027,108.0,107.0,105.0,13.3,1505.2,318.8,-0.8,1.8,2471.24,13.29,0.027,267.9
2023-02-22T07:43:03,42.805,6.029,-0.014,-0.025,0.002,107.0,107.0,106.0,13.4,1505.2,323.1,-0.8,1.8,2471.175,13.29,0.028,209.3
2023-02-22T07:46:03,42.805,6.029,-0.009,-0.006,-0.015,107.0,108.0,105.0,13.3,1505.2,320.1,-0.8,1.8,2471.23,13.29,0.01,236.3
2023-02-22T07:49:03,42.805,6.029,-0.008,-0.015,-0.03,110.0,107.0,106.0,13.4,1505.2,318.6,-0.8,1.8,2471.267,13.29,0.017,208.1
2023-02-22T07:52:02,42.805,6.029,-0.016,-0.048,-0.03,108.0,108.0,106.0,13.4,1505.2,324.0,-0.8,1.8,2471.239,13.29,0.05,198.4
2023-02-22T07:55:03,42.805,6.029,-0.013,-0.019,-0.021,108.0,107.0,105.0,13.4,1505.2,331.6,-0.8,1.8,2471.285,13.29,0.023,214.4
2023-02-22T07:58:03,42.805,6.029,-0.014,-0.032,-0.017,108.0,107.0,106.0,13.4,1505.2,329.5,-0.8,1.8,2471.245,13.29,0.034,203.6
2023-02-22T08:04:02,42.805,6.029,-0.03,-0.007,-0.027,108.0,108.0,104.0,13.3,1505.2,329.0,-0.8,1.8,2471.31,13.29,0.03,256.9
2023-02-22T08:07:02,42.805,6.029,-0.014,-0.022,-0.034,107.0,108.0,106.0,13.3,1505.2,329.7,-0.8,1.8,2471.304,13.29,0.026,212.5
2023-02-22T08:10:03,42.805,6.029,-0.011,-0.01,-0.017,108.0,107.0,105.0,13.4,1505.2,326.5,-0.8,1.8,2471.314,13.29,0.014,227.7
2023-02-22T08:13:03,42.805,6.029,-0.013,-0.025,-0.016,107.0,108.0,105.0,13.3,1505.2,316.0,-0.8,1.8,2471.301,13.29,0.028,207.5
2023-02-22T08:16:03,42.805,6.029,-0.009,-0.017,-0.006,107.0,107.0,107.0,13.3,1505.2,319.6,-0.8,1.8,2471.243,13.29,0.019,207.9
2023-02-22T08:19:03,42.805,6.029,0.007,-0.027,-0.023,109.0,109.0,105.0,13.4,1505.2,321.2,-0.8,1.8,2471.274,13.29,0.027,165.5
2023-02-22T08:22:03,42.805,6.029,-0.019,-0.019,-0.003,108.0,108.0,105.0,13.3,1505.2,316.1,-0.8,1.8,2471.263,13.29,0.026,225.0
2023-02-22T08:25:03,42.805,6.029,-0.028,0.006,-0.034,108.0,106.0,105.0,13.3,1505.2,334.2,-0.7,1.8,2471.272,13.29,0.028,282.1
2023-02-22T08:28:03,42.805,6.029,-0.028,-0.011,-0.007,107.0,105.0,106.0,13.3,1505.2,329.8,-0.8,1.8,2471.258,13.29,0.03,248.6
2023-02-22T08:31:03,42.805,6.029,-0.026,-0.025,-0.029,108.0,105.0,106.0,13.4,1505.2,333.0,-0.7,1.8,2471.312,13.29,0.036,226.1
2023-02-22T08:34:03,42.805,6.029,-0.01,-0.015,-0.007,107.0,108.0,105.0,13.3,1505.2,334.2,-0.7,1.8,2471.261,13.29,0.018,213.7
2023-02-22T08:37:03,42.805,6.029,-0.011,-0.019,-0.047,107.0,107.0,105.0,13.3,1505.2,320.8,-0.7,1.8,2471.238,13.29,0.021,210.1
2023-02-22T08:40:03,42.805,6.029,-0.028,-0.016,-0.007,107.0,107.0,106.0,13.4,1505.2,316.7,-0.8,1.8,2471.304,13.29,0.032,240.3
2023-02-22T08:43:03,42.805,6.029,-0.041,-0.03,-0.021,108.0,106.0,104.0,13.3,1505.2,316.7,-0.8,1.8,2471.267,13.29,0.05,233.8
2023-02-22T08:46:03,42.805,6.029,-0.026,-0.021,-0.031,107.0,107.0,106.0,13.3,1505.2,318.0,-0.8,1.8,2471.305,13.29,0.033,231.1
2023-02-22T08:49:03,42.805,6.029,-0.021,-0.025,-0.019,108.0,107.0,105.0,13.4,1505.2,319.1,-0.8,1.8,2471.248,13.29,0.032,220.0
2023-02-22T08:52:03,42.805,6.029,-0.034,-0.025,-0.028,107.0,107.0,105.0,13.3,1505.2,330.4,-0.8,1.8,2471.264,13.29,0.042,233.7
2023-02-22T08:55:03,42.805,6.029,-0.031,-0.024,-0.028,108.0,108.0,105.0,13.4,1505.2,333.4,-0.8,1.8,2471.309,13.29,0.039,232.3
2023-02-22T08:58:03,42.805,6.029,-0.033,-0.023,-0.008,106.0,108.0,106.0,13.3,1505.2,333.0,-0.7,1.8,2471.275,13.29,0.04,235.1
2023-02-22T09:04:02,42.805,6.029,-0.021,-0.034,-0.018,107.0,107.0,106.0,13.4,1505.2,318.3,-0.8,1.8,2471.309,13.28,0.039,211.7
2023-02-22T09:07:03,42.805,6.029,-0.032,-0.017,-0.044,108.0,106.0,105.0,13.3,1505.2,340.0,-0.8,1.8,2471.341,13.29,0.036,242.0
2023-02-22T09:10:03,42.805,6.029,-0.054,-0.01,-0.009,108.0,107.0,105.0,13.3,1505.2,335.2,-0.8,1.8,2471.318,13.29,0.054,259.5
2023-02-22T09:13:03,42.805,6.029,-0.042,-0.009,-0.018,108.0,107.0,105.0,13.4,1505.2,338.2,-0.8,1.8,2471.261,13.29,0.042,257.9
2023-02-22T09:16:03,42.805,6.029,-0.036,0.0,-0.011,108.0,107.0,104.0,13.4,1505.2,316.1,-0.8,1.8,2471.288,13.29,0.036,270.0
2023-02-22T09:19:03,42.805,6.029,-0.015,-0.006,-0.026,108.0,107.0,105.0,13.4,1505.2,332.1,-0.8,1.8,2471.277,13.29,0.016,248.2
2023-02-22T09:22:03,42.805,6.029,-0.014,-0.005,-0.004,106.0,106.0,104.0,13.4,1505.2,330.7,-0.8,1.8,2471.261,13.29,0.014,250.4
2023-02-22T09:25:03,42.805,6.029,-0.016,-0.009,-0.008,107.0,107.0,106.0,13.3,1505.2,329.5,-0.7,1.8,2471.272,13.29,0.018,240.6
2023-02-22T09:28:03,42.805,6.029,-0.018,-0.014,-0.02,107.0,107.0,106.0,13.4,1505.2,327.3,-0.7,1.8,2471.281,13.29,0.022,232.1
2023-02-22T09:31:03,42.805,6.029,0.0,-0.012,-0.023,107.0,107.0,104.0,13.4,1505.2,334.2,-0.8,1.8,2471.261,13.29,0.012,180.0
2023-02-22T09:34:03,42.805,6.029,-0.019,0.001,-0.016,106.0,107.0,105.0,13.4,1505.2,331.6,-0.8,1.8,2471.288,13.29,0.019,273.0
2023-02-22T09:37:03,42.805,6.029,-0.038,0.0,-0.026,107.0,106.0,106.0,13.3,1505.2,329.9,-0.7,1.8,2471.303,13.29,0.038,270.0
2023-02-22T09:40:03,42.805,6.029,-0.026,0.003,-0.027,107.0,107.0,105.0,13.4,1505.2,333.8,-0.8,1.8,2471.272,13.29,0.026,276.6
2023-02-22T09:43:03,42.805,6.029,-0.028,-0.002,-0.017,107.0,106.0,105.0,13.4,1505.2,333.0,-0.8,1.9,2471.28,13.29,0.028,265.9
2023-02-22T09:46:03,42.805,6.029,-0.013,0.009,-0.028,107.0,106.0,105.0,13.4,1505.2,331.3,-0.8,1.8,2471.237,13.29,0.015,304.7
2023-02-22T09:49:03,42.805,6.029,-0.023,0.001,-0.036,106.0,106.0,105.0,13.4,1505.2,323.4,-0.8,1.8,2471.251,13.29,0.023,272.5